[[{"header":{"parameterUnit":"m.s-1","parameterCategory":1,"la1":30.2991,"la2":30.254,"lo1":-89.0895,"lo2":-89.0444,"dy":0.0017,"dx":0.0017,"nx":28,"ny":28,"refTime":"2025-05-20T09:00:00:Z","depth":0,"parameterNumber":2,"parameterNumberName":"U-component_of_WINDS"},"data":[0,0,0,0,0,0,0,0,0,0,0,0,0,0,0,0,0,0,0,0,0,0,0,0,0,0,0,0,0,0,0,0,0,0,0,0,0,0,0,0,0,0,0,0,0,0,0,0,0,0,0,0,0,0,0,0,0,0,2.0081,2.0084,0,2.0274,2.0277,2.0279,2.0266,2.0264,2.0261,2.0258,2.0465,2.0473,2.0481,0,0,0,0,0,0,0,0,0,0,0,0,0,1.971,1.9717,2.0081,2.0084,2.0086,2.0274,2.0277,2.0279,2.0267,2.0263,2.026,2.0257,2.0462,2.0472,2.0481,0,0,0,0,0,0,0,0,0,0,0,0,0,1.9884,1.9719,2.0081,2.0102,2.0106,2.0274,2.0277,2.028,2.0268,2.0263,2.0259,2.0255,2.0459,2.0471,2.0483,2.0644,0,0,2.052,2.0525,0,0,0,0,0,0,0,0,1.9874,1.9898,2.0097,2.0101,2.0106,2.0242,2.0222,2.0403,2.0269,2.0207,2.0258,2.0253,2.0395,2.0412,2.0458,2.0654,2.0663,2.0521,2.0529,2.0534,2.0537,0,0,0,0,0,0,0,1.9862,1.989,2.0158,2.01,2.0105,2.0105,2.0125,2.0256,2.0323,2.0212,2.0211,2.0234,2.0396,2.0446,2.0462,2.0666,2.0521,2.0532,2.0539,2.0544,2.1005,2.101,0,0,0,0,0,0,1.9844,1.988,2.0152,2.0164,1.9977,2.0115,2.0137,2.0203,2.0321,2.0335,2.0237,2.0232,2.0427,2.0448,2.047,2.0667,2.0534,2.0545,2.0552,2.1,2.1006,2.1011,0,0,0,0,0,0,1.9836,1.9869,2.0144,2.0022,2.0057,2.0126,2.0199,2.0209,2.0258,2.034,2.0353,2.0275,2.0425,2.0452,2.06,2.0674,2.0551,2.0562,2.0994,2.1002,2.1009,2.1061,0,0,0,0,0,0,1.9826,1.9866,1.9926,2.0023,2.0063,2.0269,2.0204,2.0216,2.0278,2.0274,2.0379,2.0393,2.0423,2.0582,2.0613,2.0688,2.0572,2.0988,2.0998,2.1006,2.1053,2.107,2.1083,0,0,0,0,0,1.9812,1.9935,1.9929,1.9962,2.0139,2.0273,2.0296,2.0327,2.0284,2.0346,2.0399,2.0389,2.066,2.0597,2.0632,2.0712,2.0984,2.0995,2.1006,2.1047,2.1066,2.1083,0,0,0,0,0,0,1.9848,1.9948,1.9942,2.0099,2.0177,2.0271,2.035,2.0347,2.0441,2.0433,2.047,2.0494,2.0642,2.0692,2.062,2.0875,2.0817,2.0835,2.0836,2.0856,2.0871,2.0856,2.0582,0,0,0,0,0,1.9873,1.9971,2.0054,2.0185,2.0224,2.028,2.034,2.0356,2.044,2.0474,2.0537,2.0621,2.0725,2.0794,2.0894,2.1061,2.1084,2.1133,2.1148,2.116,2.1176,2.1268,2.1291,2.1047,2.1047,2.1047,0,0,1.9928,1.9995,2.0055,2.0193,2.0256,2.0359,2.0308,2.0419,2.0497,2.0492,2.0634,2.0684,2.078,2.0938,2.1011,2.0985,2.1248,2.1174,2.1183,2.1192,2.1282,2.1305,2.1325,2.1055,2.1054,2.1052,0,0,2.0079,2.0139,2.0254,2.0317,2.0411,2.0448,2.0476,2.057,2.0602,2.0745,2.0743,2.0838,2.1016,2.1085,2.1143,2.1321,2.1316,2.1353,2.1432,2.1521,2.1541,2.1558,2.1622,2.1644,2.1368,2.1369,2.1369,0,2.0136,2.0288,2.0315,2.0426,2.0488,2.0485,2.0603,2.0665,2.0788,2.0832,2.08,2.1023,2.1088,2.1262,2.1305,2.1353,2.1387,2.1341,2.1535,2.1553,2.1569,2.1631,2.1655,2.1372,2.1372,2.1372,2.1371,0,2.0353,2.0459,2.0541,2.0657,2.0728,2.0843,2.0889,2.0959,2.097,2.101,2.1157,2.1235,2.1351,2.1393,2.1406,2.157,2.155,2.1526,2.1469,2.1596,2.1654,2.1678,2.1378,2.1377,2.1375,2.1374,0,0,2.0532,2.0661,2.069,2.0743,2.0847,2.0931,2.1046,2.1157,2.1216,2.1302,2.1401,2.1551,2.153,2.1596,2.1617,2.1695,2.1832,2.1662,2.1665,2.1691,2.2018,2.2035,2.2062,2.1829,2.1833,2.1837,2.201,0,2.0694,2.0895,2.0923,2.1101,2.12,2.1199,2.13,2.1376,2.1418,2.151,2.1557,2.1664,2.1627,2.1667,2.1744,2.1798,2.1898,2.1786,2.1923,2.1928,2.1898,2.2092,2.2111,2.227,2.2033,2.2037,2.204,0,2.091,2.0998,2.1186,2.1276,2.1319,2.1408,2.1512,2.16,2.1687,2.1712,2.1785,2.1796,2.1918,2.1855,2.2025,2.1949,2.2007,2.2042,2.2049,2.2063,2.1991,2.2112,2.2322,2.2346,2.2076,2.2073,2.207,0,2.1022,2.1188,2.1322,2.1367,2.1476,2.1539,2.1588,2.167,2.1735,2.1827,2.187,2.1976,2.2035,2.2118,2.2158,2.2108,2.2326,2.2266,2.2352,2.2351,2.2397,2.2394,2.262,2.2435,2.2434,2.2434,2.2433,0,2.12,2.1315,2.1373,2.1455,2.1585,2.1617,2.1745,2.1793,2.1866,2.196,2.1967,2.2055,2.2103,2.2199,2.2232,2.2368,2.2395,2.242,2.2427,2.2419,2.2416,2.2458,2.2448,2.244,2.2439,2.2438,2.2437,0,2.1346,2.139,2.1535,2.1626,2.1651,2.1743,2.1821,2.1903,2.1943,2.2062,2.2092,2.2157,2.227,2.2318,2.2459,2.2481,2.2637,2.2636,2.2607,2.2609,2.2692,2.2683,2.2952,2.2989,2.278,2.2782,2.2783,0,2.1456,2.1544,2.1644,2.1705,2.1755,2.1855,2.192,2.1956,2.2025,2.2131,2.22,2.2313,2.2404,2.2587,2.2648,2.2756,2.2758,2.2845,2.2775,2.2764,2.276,2.2754,2.2763,2.2858,2.286,2.2862,2.2863,0,2.1648,2.1665,2.1757,2.1858,2.1935,2.2017,2.2097,2.2148,2.2197,2.2274,2.2388,2.246,2.2602,2.2714,2.2826,2.2879,2.2881,2.2885,2.291,2.2903,2.2882,2.2894,2.2642,2.2878,2.2877,2.2876,2.2875,2.2874,2.178,2.1858,2.194,2.2043,2.2106,2.2181,2.2261,2.2311,2.2406,2.2523,2.2539,2.2662,2.2749,2.2898,2.2956,2.3054,2.3033,2.307,2.3079,2.3088,2.3093,2.2866,2.3075,2.3075,2.3074,2.3074,2.3074,0,2.1972,2.2024,2.2118,2.2229,2.231,2.2301,2.239,2.2459,2.2566,2.2646,2.2735,2.2868,2.2977,2.3047,2.3158,2.3223,2.3227,2.3251,2.3247,2.3259,2.3106,2.3072,2.3247,2.3247,2.3247,2.3246,2.3246,2.3246,2.2081,2.2213,2.224,2.2404,2.2456,2.2574,2.2625,2.2695,2.2758,2.2904,2.2994,2.3038,2.3114,2.3231,2.3332,2.335,2.339,2.3416,2.3433,2.3288,2.327,2.3253,2.3222,2.3425,2.3425,2.3579,2.358,2.3581]},{"header":{"parameterUnit":"m.s-1","parameterCategory":1,"la1":30.2991,"la2":30.254,"lo1":-89.0895,"lo2":-89.0444,"dy":0.0017,"dx":0.0017,"nx":28,"ny":28,"refTime":"2025-05-20T09:00:00:Z","depth":0,"parameterNumber":3,"parameterNumberName":"V-component_of_WINDS"},"data":[0,0,0,0,0,0,0,0,0,0,0,0,0,0,0,0,0,0,0,0,0,0,0,0,0,0,0,0,0,0,0,0,0,0,0,0,0,0,0,0,0,0,0,0,0,0,0,0,0,0,0,0,0,0,0,0,0,0,1.443,1.4431,0,1.4528,1.4529,1.453,1.4543,1.4542,1.4541,1.454,1.4639,1.4642,1.4645,0,0,0,0,0,0,0,0,0,0,0,0,0,1.4252,1.4255,1.443,1.4431,1.4432,1.4527,1.4529,1.453,1.4543,1.4542,1.4541,1.454,1.4637,1.4642,1.4646,0,0,0,0,0,0,0,0,0,0,0,0,0,1.4337,1.4256,1.4429,1.445,1.4453,1.4527,1.4529,1.453,1.4543,1.4542,1.4541,1.4539,1.4636,1.4641,1.4646,1.4706,0,0,1.4662,1.4664,0,0,0,0,0,0,0,0,1.4332,1.4344,1.4446,1.4449,1.4452,1.4522,1.4502,1.4589,1.4544,1.4509,1.454,1.4539,1.4601,1.4609,1.463,1.471,1.4715,1.4663,1.4666,1.4668,1.467,0,0,0,0,0,0,0,1.4326,1.4339,1.4468,1.4447,1.4451,1.4454,1.4464,1.4518,1.4561,1.4512,1.4513,1.4525,1.4602,1.4625,1.4632,1.4716,1.4663,1.4667,1.467,1.4672,1.4847,1.4849,0,0,0,0,0,0,1.4317,1.4334,1.4465,1.4471,1.4388,1.4458,1.447,1.4501,1.4561,1.4569,1.4526,1.4525,1.4617,1.4626,1.4636,1.4707,1.4668,1.4673,1.4676,1.4846,1.4847,1.4849,0,0,0,0,0,0,1.4313,1.4328,1.4461,1.4403,1.442,1.4463,1.4497,1.4503,1.4526,1.4571,1.4579,1.4541,1.4616,1.4629,1.4688,1.4711,1.4675,1.468,1.4844,1.4846,1.4848,1.4852,0,0,0,0,0,0,1.4308,1.4327,1.4351,1.4404,1.4423,1.4512,1.4499,1.4506,1.4535,1.4535,1.4588,1.4595,1.4616,1.468,1.4693,1.4717,1.4684,1.4842,1.4845,1.4848,1.485,1.4854,1.4858,0,0,0,0,0,1.4301,1.4348,1.4352,1.4368,1.4454,1.4514,1.4525,1.4549,1.4537,1.4561,1.4589,1.4594,1.4707,1.4686,1.4701,1.4727,1.484,1.4844,1.4847,1.4848,1.4853,1.4857,0,0,0,0,0,0,1.4297,1.4355,1.436,1.4426,1.4465,1.4516,1.4547,1.4554,1.4596,1.4594,1.4621,1.4633,1.469,1.4715,1.4691,1.4786,1.4772,1.4779,1.4768,1.4773,1.4777,1.4769,1.4688,0,0,0,0,0,1.4303,1.4348,1.4396,1.4449,1.4469,1.4504,1.4531,1.4546,1.4587,1.4603,1.4636,1.4675,1.4719,1.4748,1.4791,1.4854,1.4864,1.4879,1.4883,1.4886,1.4891,1.4923,1.4929,1.486,1.486,1.486,0,0,1.4317,1.4355,1.4381,1.4449,1.4481,1.4525,1.4518,1.4565,1.4598,1.461,1.4668,1.4693,1.4738,1.4799,1.4827,1.4821,1.4912,1.489,1.4892,1.4896,1.4927,1.4934,1.4939,1.4863,1.4862,1.4862,0,0,1.4365,1.4399,1.4445,1.4477,1.4526,1.4549,1.456,1.461,1.4627,1.4685,1.4695,1.4734,1.481,1.4841,1.4867,1.4924,1.4928,1.4937,1.4957,1.4988,1.4993,1.4998,1.5017,1.5023,1.4942,1.4942,1.4942,0,1.4376,1.4443,1.4468,1.4515,1.4543,1.4557,1.4603,1.4633,1.4693,1.4712,1.4704,1.4799,1.483,1.4897,1.4911,1.4932,1.4944,1.4931,1.4991,1.4996,1.5001,1.5019,1.5026,1.4943,1.4943,1.4943,1.4943,0,1.4453,1.45,1.4531,1.4588,1.4621,1.4667,1.4698,1.4727,1.4739,1.4762,1.482,1.4858,1.4908,1.4926,1.4938,1.4993,1.4988,1.4986,1.4972,1.5008,1.5025,1.5032,1.4944,1.4944,1.4943,1.4943,0,0,1.45,1.457,1.4581,1.4606,1.4659,1.4695,1.4741,1.4791,1.4814,1.4855,1.4893,1.4956,1.4954,1.4983,1.4998,1.5026,1.5066,1.502,1.5021,1.5025,1.5127,1.5127,1.5134,1.507,1.5071,1.5072,1.5122,0,1.4552,1.4635,1.4658,1.4727,1.4769,1.4782,1.4822,1.4858,1.4881,1.4919,1.4944,1.4988,1.4983,1.5,1.5028,1.5055,1.5086,1.5052,1.5103,1.5105,1.509,1.5144,1.5144,1.5189,1.5129,1.513,1.5131,0,1.4624,1.4665,1.4739,1.4785,1.4803,1.4839,1.4885,1.4922,1.4962,1.4977,1.5009,1.5021,1.5068,1.5053,1.5116,1.5092,1.5114,1.5131,1.5133,1.5137,1.5119,1.5147,1.5205,1.5211,1.5142,1.5141,1.5141,0,1.4647,1.4722,1.4775,1.4796,1.4852,1.4876,1.4901,1.494,1.4968,1.5008,1.5025,1.507,1.5094,1.5128,1.5152,1.5139,1.5212,1.5199,1.5224,1.5223,1.5238,1.5236,1.5297,1.5255,1.5255,1.5255,1.5255,0,1.4702,1.4746,1.4786,1.4818,1.4867,1.4893,1.494,1.4965,1.5,1.5036,1.5051,1.5084,1.5114,1.5151,1.517,1.5218,1.523,1.5241,1.5245,1.5239,1.5237,1.5253,1.525,1.5257,1.5256,1.5256,1.5256,0,1.4736,1.4765,1.4823,1.4871,1.4884,1.4918,1.4959,1.499,1.5013,1.5058,1.5071,1.5107,1.5151,1.5178,1.5235,1.5247,1.5299,1.5303,1.5285,1.5287,1.5309,1.5306,1.5381,1.5391,1.5344,1.5344,1.5345,0,1.4768,1.4802,1.4853,1.4879,1.4903,1.4944,1.4972,1.4999,1.5027,1.5075,1.51,1.5145,1.5182,1.5252,1.5283,1.5325,1.5329,1.5352,1.5335,1.5327,1.5327,1.5324,1.5326,1.5355,1.5355,1.5355,1.5356,0,1.482,1.4833,1.4873,1.4917,1.495,1.4986,1.5023,1.5042,1.5075,1.5105,1.5151,1.518,1.5237,1.5281,1.5326,1.535,1.5357,1.5361,1.5368,1.5361,1.5349,1.5354,1.5291,1.5359,1.5358,1.5358,1.5358,1.5358,1.4853,1.4883,1.4923,1.4967,1.4997,1.503,1.5061,1.5087,1.5126,1.5175,1.5188,1.5235,1.5273,1.5334,1.5359,1.5395,1.5391,1.5403,1.5405,1.5407,1.5407,1.5344,1.5403,1.5403,1.5403,1.5403,1.5403,0,1.4904,1.4931,1.497,1.502,1.5054,1.5059,1.5099,1.5126,1.5168,1.5203,1.524,1.5291,1.5333,1.5367,1.541,1.5432,1.5437,1.5442,1.544,1.5445,1.5408,1.5397,1.5438,1.5438,1.5438,1.5438,1.5438,1.5438,1.4935,1.4985,1.5002,1.5066,1.5092,1.5139,1.516,1.519,1.5219,1.5275,1.5311,1.5332,1.5366,1.5412,1.545,1.5459,1.5473,1.5478,1.5487,1.5452,1.5448,1.5444,1.5433,1.5481,1.5481,1.552,1.5521,1.5521]}]]